Multibeam Report for RR1509


Ship Name: Roger Revelle
Chief Scientist: Wallace, Laura
University of Texas Institute for Geophysics
Source Organization: Rolling Deck to Repository
Start Date: 2015-06-20
End Date: 2015-06-30


View ISO Metadata

Visit the full NCEI Bathymetry Viewer


Multibeam Bathymetry

Cruise Details

Project: Hikurangi Ocean Bottom Investigation of Tremor and Slow Slip (HOBITSS)
Instrument: Kongsberg EM122

Data Quality

Number of Files: 173
Number of Records: 117366
BATHYMETRY DATA Quantity Percentage
Number of Beams 35615952 100%
Number of Good Beams 30830802 86.56%
Number of Zero Beams 0 0%
Number of Flagged Beams 4785150 13.44%
AMPLITUDE DATA Quantity Percentage
Number of Beams 35615952 100%
Number of Good Beams 30830802 86.56%
Number of Zero Beams 0 0%
Number of Flagged Beams 4785150 13.44%
SIDESCAN DATA Quantity Percentage
Number of Pixels 120182784 100%
Number of Good Pixels 84456717 70.27%
Number of Zero Pixels 0 0%
Number of Flagged Pixels 35726067 29.73%

Navigation Totals

Total Time: 65.7384 hours
Total Track Length: 631.3397 km
Average Speed: 9.604 km/hr (5.1857 knots)

Cruise Bounds

Northern Extent: -38.570393
Southern Extent: -39.316776
Western Extent: 177.99797
Eastern Extent: 179.14944

Limits

Minimum Sonar Depth 1.1921 Maximum Sonar Depth 10.2542
Minimum Altitude 63.2658 Maximum Altitude 6068.0645
Minimum Depth 57.1341 Maximum Depth 6469.8311
Minimum Amplitude 0 Maximum Amplitude 17.1
Minimum Sidescan 0 Maximum Sidescan 26.26

File Information

Full Resolution Bathymetry as collected (raw): 169

Files File Size Description
0000_20150628_025604_revelle.all.mb58.gz 6.90MB Kongsberg multibeam vendor format
0001_20150628_030148_revelle.all.mb58.gz 2.49MB Kongsberg multibeam vendor format
0002_20150620_053210_revelle.all.mb58.gz 157.0KB Kongsberg multibeam vendor format
0002_20150628_033008_revelle.all.mb58.gz 0.52MB Kongsberg multibeam vendor format
0003_20150620_053608_revelle.all.mb58.gz 0.81MB Kongsberg multibeam vendor format
0003_20150628_035854_revelle.all.mb58.gz 176.51MB Kongsberg multibeam vendor format
0004_20150628_042847_revelle.all.mb58.gz 53.68MB Kongsberg multibeam vendor format
0005_20150628_045851_revelle.all.mb58.gz 249.6KB Kongsberg multibeam vendor format
0006_20150620_055605_revelle.all.mb58.gz 1.84MB Kongsberg multibeam vendor format
0006_20150628_060930_revelle.all.mb58.gz 58.59MB Kongsberg multibeam vendor format
0007_20150620_071212_revelle.all.mb58.gz 52.57MB Kongsberg multibeam vendor format
0007_20150628_174825_revelle.all.mb58.gz 2.13MB Kongsberg multibeam vendor format
0008_20150620_074212_revelle.all.mb58.gz 45.42MB Kongsberg multibeam vendor format
0008_20150629_070003_revelle.all.mb58.gz 305.5KB Kongsberg multibeam vendor format
0009_20150620_081216_revelle.all.mb58.gz 39.87MB Kongsberg multibeam vendor format
0010_20150620_084216_revelle.all.mb58.gz 126.5KB Kongsberg multibeam vendor format
0011_20150620_105821_revelle.all.mb58.gz 41.06MB Kongsberg multibeam vendor format
0012_20150620_112806_revelle.all.mb58.gz 43.98MB Kongsberg multibeam vendor format
0013_20150620_115803_revelle.all.mb58.gz 48.80MB Kongsberg multibeam vendor format
0014_20150620_122805_revelle.all.mb58.gz 49.08MB Kongsberg multibeam vendor format
0015_20150620_125803_revelle.all.mb58.gz 11.65MB Kongsberg multibeam vendor format
0016_20150620_152554_revelle.all.mb58.gz 46.78MB Kongsberg multibeam vendor format
0017_20150620_163921_revelle.all.mb58.gz 49.03MB Kongsberg multibeam vendor format
0018_20150620_170906_revelle.all.mb58.gz 49.36MB Kongsberg multibeam vendor format
0019_20150620_173906_revelle.all.mb58.gz 49.90MB Kongsberg multibeam vendor format
0020_20150620_180904_revelle.all.mb58.gz 49.56MB Kongsberg multibeam vendor format
0021_20150620_183903_revelle.all.mb58.gz 51.91MB Kongsberg multibeam vendor format
0022_20150620_190904_revelle.all.mb58.gz 95.72MB Kongsberg multibeam vendor format
0023_20150620_193903_revelle.all.mb58.gz 95.72MB Kongsberg multibeam vendor format
0024_20150620_233044_revelle.all.mb58.gz 0.88MB Kongsberg multibeam vendor format
0025_20150620_233226_revelle.all.mb58.gz 353.6KB Kongsberg multibeam vendor format
0026_20150620_233250_revelle.all.mb58.gz 123.32MB Kongsberg multibeam vendor format
0027_20150621_000239_revelle.all.mb58.gz 53.33MB Kongsberg multibeam vendor format
0028_20150621_012524_revelle.all.mb58.gz 24.72MB Kongsberg multibeam vendor format
0029_20150621_015512_revelle.all.mb58.gz 18.37MB Kongsberg multibeam vendor format
0030_20150621_143600_revelle.all.mb58.gz 48.98MB Kongsberg multibeam vendor format
0031_20150621_150549_revelle.all.mb58.gz 49.24MB Kongsberg multibeam vendor format
0032_20150621_153550_revelle.all.mb58.gz 48.48MB Kongsberg multibeam vendor format
0033_20150621_160550_revelle.all.mb58.gz 48.53MB Kongsberg multibeam vendor format
0034_20150621_163549_revelle.all.mb58.gz 45.07MB Kongsberg multibeam vendor format
0035_20150621_170550_revelle.all.mb58.gz 44.58MB Kongsberg multibeam vendor format
0036_20150621_173551_revelle.all.mb58.gz 43.95MB Kongsberg multibeam vendor format
0037_20150621_180550_revelle.all.mb58.gz 41.78MB Kongsberg multibeam vendor format
0038_20150621_183548_revelle.all.mb58.gz 38.25MB Kongsberg multibeam vendor format
0039_20150621_190550_revelle.all.mb58.gz 43.00MB Kongsberg multibeam vendor format
0040_20150621_193549_revelle.all.mb58.gz 35.59MB Kongsberg multibeam vendor format
0041_20150621_211311_revelle.all.mb58.gz 43.31MB Kongsberg multibeam vendor format
0042_20150621_214302_revelle.all.mb58.gz 31.48MB Kongsberg multibeam vendor format
0043_20150621_221300_revelle.all.mb58.gz 11.16MB Kongsberg multibeam vendor format
0044_20150622_005102_revelle.all.mb58.gz 28.36MB Kongsberg multibeam vendor format
0045_20150622_012050_revelle.all.mb58.gz 25.88MB Kongsberg multibeam vendor format
0046_20150622_015055_revelle.all.mb58.gz 6.81MB Kongsberg multibeam vendor format
0047_20150622_015920_revelle.all.mb58.gz 25.05MB Kongsberg multibeam vendor format
0048_20150622_022909_revelle.all.mb58.gz 31.89MB Kongsberg multibeam vendor format
0049_20150622_025909_revelle.all.mb58.gz 32.10MB Kongsberg multibeam vendor format
0050_20150622_032906_revelle.all.mb58.gz 32.08MB Kongsberg multibeam vendor format
0051_20150622_035903_revelle.all.mb58.gz 13.00MB Kongsberg multibeam vendor format
0052_20150622_062422_revelle.all.mb58.gz 27.49MB Kongsberg multibeam vendor format
0053_20150622_065413_revelle.all.mb58.gz 27.86MB Kongsberg multibeam vendor format
0054_20150622_072408_revelle.all.mb58.gz 27.00MB Kongsberg multibeam vendor format
0055_20150622_075406_revelle.all.mb58.gz 27.00MB Kongsberg multibeam vendor format
0056_20150622_082405_revelle.all.mb58.gz 27.15MB Kongsberg multibeam vendor format
0057_20150622_085408_revelle.all.mb58.gz 31.38MB Kongsberg multibeam vendor format
0058_20150622_092414_revelle.all.mb58.gz 30.80MB Kongsberg multibeam vendor format
0059_20150622_095405_revelle.all.mb58.gz 31.71MB Kongsberg multibeam vendor format
0060_20150622_102405_revelle.all.mb58.gz 29.44MB Kongsberg multibeam vendor format
0061_20150622_105404_revelle.all.mb58.gz 29.57MB Kongsberg multibeam vendor format
0062_20150622_112405_revelle.all.mb58.gz 28.92MB Kongsberg multibeam vendor format
0063_20150622_115409_revelle.all.mb58.gz 36.94MB Kongsberg multibeam vendor format
0064_20150622_122410_revelle.all.mb58.gz 40.09MB Kongsberg multibeam vendor format
0065_20150622_125409_revelle.all.mb58.gz 28.63MB Kongsberg multibeam vendor format
0066_20150622_132405_revelle.all.mb58.gz 25.35MB Kongsberg multibeam vendor format
0067_20150622_135406_revelle.all.mb58.gz 25.53MB Kongsberg multibeam vendor format
0068_20150622_142404_revelle.all.mb58.gz 39.55MB Kongsberg multibeam vendor format
0069_20150622_145404_revelle.all.mb58.gz 41.50MB Kongsberg multibeam vendor format
0070_20150622_152405_revelle.all.mb58.gz 31.37MB Kongsberg multibeam vendor format
0071_20150622_155403_revelle.all.mb58.gz 29.32MB Kongsberg multibeam vendor format
0072_20150622_162404_revelle.all.mb58.gz 25.98MB Kongsberg multibeam vendor format
0073_20150622_165410_revelle.all.mb58.gz 26.76MB Kongsberg multibeam vendor format
0074_20150622_172404_revelle.all.mb58.gz 25.85MB Kongsberg multibeam vendor format
0075_20150622_175404_revelle.all.mb58.gz 29.71MB Kongsberg multibeam vendor format
0076_20150622_182406_revelle.all.mb58.gz 26.00MB Kongsberg multibeam vendor format
0077_20150622_185407_revelle.all.mb58.gz 27.04MB Kongsberg multibeam vendor format
0078_20150622_192408_revelle.all.mb58.gz 29.13MB Kongsberg multibeam vendor format
0079_20150622_195405_revelle.all.mb58.gz 29.26MB Kongsberg multibeam vendor format
0080_20150622_202406_revelle.all.mb58.gz 29.79MB Kongsberg multibeam vendor format
0081_20150622_205406_revelle.all.mb58.gz 30.22MB Kongsberg multibeam vendor format
0082_20150622_212404_revelle.all.mb58.gz 30.98MB Kongsberg multibeam vendor format
0083_20150622_215401_revelle.all.mb58.gz 46.30MB Kongsberg multibeam vendor format
0084_20150622_222404_revelle.all.mb58.gz 45.97MB Kongsberg multibeam vendor format
0085_20150622_225403_revelle.all.mb58.gz 46.21MB Kongsberg multibeam vendor format
0086_20150622_232402_revelle.all.mb58.gz 45.45MB Kongsberg multibeam vendor format
0087_20150622_235404_revelle.all.mb58.gz 45.03MB Kongsberg multibeam vendor format
0088_20150623_002401_revelle.all.mb58.gz 44.69MB Kongsberg multibeam vendor format
0089_20150623_005400_revelle.all.mb58.gz 45.07MB Kongsberg multibeam vendor format
0090_20150623_012404_revelle.all.mb58.gz 44.98MB Kongsberg multibeam vendor format
0091_20150623_015400_revelle.all.mb58.gz 16.94MB Kongsberg multibeam vendor format
0092_20150623_034623_revelle.all.mb58.gz 45.09MB Kongsberg multibeam vendor format
0093_20150623_041610_revelle.all.mb58.gz 38.07MB Kongsberg multibeam vendor format
0094_20150623_070636_revelle.all.mb58.gz 43.17MB Kongsberg multibeam vendor format
0095_20150623_073625_revelle.all.mb58.gz 38.12MB Kongsberg multibeam vendor format
0096_20150623_110618_revelle.all.mb58.gz 43.38MB Kongsberg multibeam vendor format
0097_20150623_131510_revelle.all.mb58.gz 47.06MB Kongsberg multibeam vendor format
0098_20150623_134457_revelle.all.mb58.gz 41.12MB Kongsberg multibeam vendor format
0099_20150623_141500_revelle.all.mb58.gz 41.20MB Kongsberg multibeam vendor format
0100_20150623_144459_revelle.all.mb58.gz 40.82MB Kongsberg multibeam vendor format
0101_20150623_151457_revelle.all.mb58.gz 40.17MB Kongsberg multibeam vendor format
0102_20150623_154457_revelle.all.mb58.gz 33.41MB Kongsberg multibeam vendor format
0103_20150623_161505_revelle.all.mb58.gz 27.57MB Kongsberg multibeam vendor format
0104_20150623_164500_revelle.all.mb58.gz 28.80MB Kongsberg multibeam vendor format
0105_20150623_171459_revelle.all.mb58.gz 31.92MB Kongsberg multibeam vendor format
0106_20150623_174457_revelle.all.mb58.gz 31.72MB Kongsberg multibeam vendor format
0107_20150623_181500_revelle.all.mb58.gz 30.86MB Kongsberg multibeam vendor format
0108_20150623_184455_revelle.all.mb58.gz 30.30MB Kongsberg multibeam vendor format
0109_20150623_191502_revelle.all.mb58.gz 31.39MB Kongsberg multibeam vendor format
0110_20150623_194502_revelle.all.mb58.gz 20.35MB Kongsberg multibeam vendor format
0111_20150623_223042_revelle.all.mb58.gz 31.33MB Kongsberg multibeam vendor format
0112_20150623_230031_revelle.all.mb58.gz 18.08MB Kongsberg multibeam vendor format
0113_20150624_000238_revelle.all.mb58.gz 33.76MB Kongsberg multibeam vendor format
0114_20150624_003228_revelle.all.mb58.gz 45.74MB Kongsberg multibeam vendor format
0115_20150624_010227_revelle.all.mb58.gz 51.60MB Kongsberg multibeam vendor format
0116_20150624_013227_revelle.all.mb58.gz 86.00MB Kongsberg multibeam vendor format
0117_20150624_020225_revelle.all.mb58.gz 108.94MB Kongsberg multibeam vendor format
0118_20150624_023225_revelle.all.mb58.gz 27.32MB Kongsberg multibeam vendor format
0120_20150624_034502_revelle.all.mb58.gz 0.52MB Kongsberg multibeam vendor format
0121_20150624_042527_revelle.all.mb58.gz 43.34MB Kongsberg multibeam vendor format
0122_20150624_045525_revelle.all.mb58.gz 18.06MB Kongsberg multibeam vendor format
0123_20150624_050744_revelle.all.mb58.gz 10.93MB Kongsberg multibeam vendor format
0124_20150625_072650_revelle.all.mb58.gz 53.62MB Kongsberg multibeam vendor format
0125_20150625_075643_revelle.all.mb58.gz 54.62MB Kongsberg multibeam vendor format
0126_20150625_082643_revelle.all.mb58.gz 48.85MB Kongsberg multibeam vendor format
0127_20150625_085643_revelle.all.mb58.gz 51.07MB Kongsberg multibeam vendor format
0128_20150625_092643_revelle.all.mb58.gz 50.13MB Kongsberg multibeam vendor format
0129_20150625_095643_revelle.all.mb58.gz 48.17MB Kongsberg multibeam vendor format
0130_20150625_102642_revelle.all.mb58.gz 44.79MB Kongsberg multibeam vendor format
0131_20150625_110407_revelle.all.mb58.gz 0.58MB Kongsberg multibeam vendor format
0132_20150625_153627_revelle.all.mb58.gz 1.44MB Kongsberg multibeam vendor format
0133_20150625_154205_revelle.all.mb58.gz 2.51MB Kongsberg multibeam vendor format
0134_20150625_202438_revelle.all.mb58.gz 36.40MB Kongsberg multibeam vendor format
0135_20150625_205425_revelle.all.mb58.gz 40.78MB Kongsberg multibeam vendor format
0136_20150625_212423_revelle.all.mb58.gz 24.96MB Kongsberg multibeam vendor format
0137_20150625_214240_revelle.all.mb58.gz 4.34MB Kongsberg multibeam vendor format
0138_20150625_230532_revelle.all.mb58.gz 42.99MB Kongsberg multibeam vendor format
0139_20150625_233517_revelle.all.mb58.gz 46.70MB Kongsberg multibeam vendor format
0140_20150626_000517_revelle.all.mb58.gz 5.71MB Kongsberg multibeam vendor format
0141_20150626_012725_revelle.all.mb58.gz 47.48MB Kongsberg multibeam vendor format
0142_20150626_015715_revelle.all.mb58.gz 32.68MB Kongsberg multibeam vendor format
0143_20150626_030757_revelle.all.mb58.gz 11.71MB Kongsberg multibeam vendor format
0144_20150626_031600_revelle.all.mb58.gz 56.61MB Kongsberg multibeam vendor format
0145_20150626_034552_revelle.all.mb58.gz 52.73MB Kongsberg multibeam vendor format
0146_20150626_041549_revelle.all.mb58.gz 33.36MB Kongsberg multibeam vendor format
0147_20150626_094006_revelle.all.mb58.gz 35.54MB Kongsberg multibeam vendor format
0148_20150626_190112_revelle.all.mb58.gz 42.91MB Kongsberg multibeam vendor format
0149_20150626_193102_revelle.all.mb58.gz 49.15MB Kongsberg multibeam vendor format
0150_20150626_200102_revelle.all.mb58.gz 36.54MB Kongsberg multibeam vendor format
0151_20150626_203103_revelle.all.mb58.gz 28.31MB Kongsberg multibeam vendor format
0152_20150626_210101_revelle.all.mb58.gz 14.78MB Kongsberg multibeam vendor format
0153_20150626_231001_revelle.all.mb58.gz 21.97MB Kongsberg multibeam vendor format
0154_20150626_232904_revelle.all.mb58.gz 38.71MB Kongsberg multibeam vendor format
0155_20150626_235856_revelle.all.mb58.gz 19.91MB Kongsberg multibeam vendor format
0156_20150627_002025_revelle.all.mb58.gz 1.68MB Kongsberg multibeam vendor format
0157_20150627_002217_revelle.all.mb58.gz 237.9KB Kongsberg multibeam vendor format
0158_20150627_061224_revelle.all.mb58.gz 31.71MB Kongsberg multibeam vendor format
0159_20150627_064213_revelle.all.mb58.gz 33.05MB Kongsberg multibeam vendor format
0160_20150627_071210_revelle.all.mb58.gz 39.43MB Kongsberg multibeam vendor format
0161_20150627_074212_revelle.all.mb58.gz 43.14MB Kongsberg multibeam vendor format
0162_20150627_081210_revelle.all.mb58.gz 46.84MB Kongsberg multibeam vendor format
0163_20150627_084210_revelle.all.mb58.gz 8.60MB Kongsberg multibeam vendor format
0164_20150627_091430_revelle.all.mb58.gz 12.14MB Kongsberg multibeam vendor format

Metadata Files: 3

Files File Size Description
RR1509_Multibeam.xml NGDC created ISO metadata
em122_bag_info.tar.gz 8.2KB Additional cruise information
xbt_bag_info.tar.gz 1.7KB Additional cruise information

Ancillary Files: 1

Files File Size Description
xbt.tar.gz 329.2KB Expendable Bathythermograph (XBT) data